sat.trackr.live / text

‹ back to catalog

SHIYAN-21 (SY-21)

NORAD 54752 · 2022-172A

PAYLOAD ACTIVE UNKNOWN

§ Identity

Operator
Country
PRC
Launch date
2022-12-16
Launch site
XICLF
Launch vehicle
Mass (kg)
RCS (m²)

External: N2YO · Heavens-Above · Gunter

§ Orbital elements

Epoch: 2026-05-25T05:50:04.278048Z

Period
94.21 min
Inclination
35.9793°
Eccentricity
0.0019322
Mean motion
15.28462215 rev/d
Perigee alt
467.2 km
Apogee alt
493.7 km
Semi-major
6,858.5 km
B*
2.3755e-4
RAAN
215.3869°
Arg perigee
46.7347°
Mean anomaly
313.4996°
Rev number
19,217

§ Raw data

SHIYAN-21 (SY-21)1 54752U 22172A   26145.24310507  .00006713  00000+0  23755-3 0  99982 54752  35.9793 215.3869 0019322  46.7347 313.4996 15.28462215192174

JSON: /api/v1/satellites/54752 · /tle

For live sub-satellite position, see the globe view (requires WebGL).

§ Visibility from observer

Set your observer location to see the next 7 days of passes ≥ 10°. The values pass through the URL so the page stays shareable.

No JS? Fill the form by hand. The geolocation button needs JavaScript.